SCP
0 0 0 0 -0 -0 0 -0 -0 -0 -0 0 0 0 0 0 0 0 0 0 0 -0 0 0 0 0 0 0 0 0 0 0 0 0 0 0 0 0 0 0 0 0 0 0
0 -0 -0 0 0 0 0 0 -0 0 0 0 0 0 0 0 0 0 0 0 0 0 -0 0 0 0 0 0 0 0 0 0 0 0 0 0 0 0 0 0 0 0 0 0
0 0 -0 0 0 0 0 -0 -0 -0 -0 -0 0 0 0 0 0 0 0 0 0 0 -0 -0 0 0 0 0 0 0 0 0 0 0 0 0 0 0 0 0 0 0 0 0
0 0 -0 0 -0 0 -0 0 -0 -0 0 0 0 0 0 0 -0 -0 0 0 0 0 -0 -0 0 0 0 0 0 0 0 0 0 0 0 0 0 0 0 0 0 0 0 0
0 -0 0 0 -0 0 0 0 0 0 0 -0 0 0 -0 0 0 0 0 0 0 -0 -0 -0 0 0 0 0 0 0 0 0 0 0 0 0 0 0 0 0 0 0 0 0
-0 0 0 0 0 0 0 0 0 0 0 0 0 0 0 0 -0 0 0 0 0 -0 -0 -0 0 0 0 0 0 0 0 0 0 0 0 0 0 0 0 0 0 0 0 0
-0 0 0 0 0 0 0 0 0 0 0 0 0 0 0 0 0 -0 0 0 0 -0 -0 0 0 0 0 0 0 0 0 0 0 0 0 0 0 0 0 0 0 0 0 0
0 0 0 0 0 0 0 0 0 0 0 0 0 0 0 0 0 0 0 0 0 0 0 0 0 0 0 0 0 0 0 0 0 0 0 0 0 0 0 0 0 0 0 0
0 0 0 0 0 0 0 0 0 0 0 0 0 0 0 0 -0 -0 0 0 0 0 0 0 0 0 0 0 0 0 0 0 0 0 0 0 0 0 0 0 0 0 0 0
0 0 0 0 0 0 0 0 0 0 0 0 0 0 0 0 -0 0 0 0 0 0 0 0 0 0 0 0 0 0 0 0 0 0 0 0 0 0 0 0 0 0 0 0
0 0 0 0 0 0 0 0 0 0 0 0 0 0 -0 0 0 0 0 0 0 0 0 0 0 0 0 0 0 0 0 0 0 0 0 0 0 0 0 0 0 0 0 0
0 0 0 0 0 0 0 0 0 0 0 0 0 0 -0 0 -0 0 0 0 0 0 0 0 0 0 0 0 0 0 0 0 0 0 0 0 0 0 0 0 0 0 0 0
0 0 0 0 0 0 0 0 0 0 0 -0 -0 0 0 -0 0 0 0 0 0 0 0 0 0 0 0 0 0 0 0 0 0 0 0 0 0 0 0 0 0 0 0 0
0 0 0 0 0 0 0 0 0 0 0 0 0 0 -0 -0 0 0 0 0 0 0 0 0 0 0 0 0 0 0 0 0 0 0 0 0 0 0 0 0 0 0 0 0
0 0 0 0 0 0 0 0 0 -0 0 0 0 -0 0 0 0 0 0 0 0 0 0 0 0 0 0 0 0 0 0 0 0 0 0 0 0 0 0 0 0 0 0 0
-0 0 0 0 0 0 0 0 0 0 0 0 0 0 0 0 0 0 0 0 0 0 0 0 -0 -0 -0 0 0 0 0 0 0 0 0 0 0 0 0 0 0 0 0 0
-0 -0 0 0 0 0 0 0 0 0 0 0 0 0 0 0 0 0 0 0 0 0 0 0 0 0 0 0 0 0 0 0 0 0 0 0 0 0 0 0 0 0 0 0
0 -0 0 0 0 0 0 0 0 0 0 0 0 0 0 0 0 0 0 0 0 0 0 0 0 0 0 0 0 0 0 0 0 0 0 0 0 0 0 0 0 0 0 0
0 -0 -0 -0 -0 0 0 0 0 0 0 0 0 0 0 0 0 -0 -0 0 0 0 -0 -0 -0 -0 -0 0 0 0 0 0 0 0 0 0 0 0 0 0 0 0 0 0
-0 -0 -0 -0 -0 -0 0 0 0 0 0 0 0 0 -0 -0 -0 0 -0 -0 -0 -0 -0 0 -0 0 -0 0 -0 0 0 0 0 0 0 0 0 0 0 0 0 0 0 0
-0 -0 -0 -0 -0 -0 -0 -0 0 -0 -0 0 -0 -0 -0 -0 -0 -0 -0 -0 -0 -0 0 0 0 0 0 0 0 0 0 0 0 0 0 0 0 0 0 0 0 0 0 0
-0 -0 -0 -0 -0 0 0 -0 -0 -0 -0 -0 -0 -0 -0 -0 -0 -0 0 0 -0 -0 -0 -0 -0 -0 -0 -0 -0 -0 -0 0 0 0 0 0 0 0 0 0 0 0 0 0
0 -0 -0 -0 0 -0 0 -0 -0 -0 -0 -0 -0 -0 -0 -0 -0 -0 -0 0 -0 -0 -0 -0 0 0 -0 -0 0 0 0 0 0 0 0 0 0 0 0 0 0 0 0 0
0 0 0 0 0 -0 -0 0 -0 -0 -0 -0 -0 -0 -0 -0 -0 -0 -0 -0 0 0 0 -0 -0 0 0 0 0 0 0 0 0 0 0 0 0 0 0 0 0 0 0 0
0 0 0 0 0 0 -0 -0 -0 -0 -0 -0 -0 -0 -0 -0 -0 -0 -0 -0 -0 -0 -0 -0 -0 -0 -0 -0 0 0 0 0 0 0 0 0 0 0 0 0 0 0 0 0
0 0 0 0 0 0 -0 0 -0 -0 -0 -0 -0 -0 -0 -0 -0 -0 -0 -0 -0 -0 -0 -0 -0 -0 -0 -0 -0 -0 0 0 0 0 0 0 0 0 0 0 0 0 0 0
Wind_Speed_500mb
14 11 26 35 37 45 44 46 52 41 37 32 44 51 50 52 54 53 52 51 51 50 48 43 43 52 43 41 40 39 49 47 67 71 72 80 76 71 67 76 79 71 65 62
11 31 43 41 39 38 43 47 53 49 43 37 43 53 49 48 51 63 59 55 55 50 48 54 51 45 49 41 39 39 50 52 68 77 69 77 70 71 79 77 79 75 72 68
30 41 47 37 40 40 41 44 49 49 46 29 29 52 54 61 60 68 73 65 59 54 48 49 46 43 42 42 46 44 49 50 68 59 62 57 65 74 62 67 81 83 74 76
27 33 27 31 39 38 44 46 50 49 34 27 30 24 33 32 36 47 66 61 62 56 51 53 47 42 43 49 52 48 50 61 63 62 61 66 67 68 68 73 84 90 86 80
24 39 38 35 46 37 30 30 32 28 26 29 38 24 50 31 42 45 43 61 59 54 53 57 53 40 47 45 46 45 51 61 69 63 58 63 77 62 68 81 78 80 81 89
43 49 38 34 37 23 24 11 9 11 9 18 28 26 34 18 36 37 40 55 55 51 52 56 46 51 43 42 43 44 46 57 56 65 63 68 61 70 80 87 77 81 84 88
42 11 12 16 19 19 16 6 7 10 13 14 5 14 30 17 33 42 40 41 50 46 53 43 51 49 41 39 43 42 40 47 45 56 57 62 43 61 45 57 75 82 87 92
20 15 3 5 9 16 25 10 9 11 7 13 5 13 5 18 41 41 51 25 38 36 37 39 48 43 39 37 39 40 38 42 43 38 43 49 30 47 58 67 32 76 77 86
14 11 20 20 9 9 13 9 15 11 14 18 15 6 7 32 32 34 38 36 23 31 37 46 42 39 34 33 34 37 39 40 39 37 35 33 38 48 47 48 49 46 44 57
8 20 8 16 8 10 8 16 11 9 9 12 5 9 21 36 33 11 21 29 37 36 39 38 36 35 32 33 34 36 37 35 28 26 26 24 25 27 36 34 35 43 54 56
14 8 24 26 15 29 31 11 11 8 8 8 8 8 23 30 28 20 18 34 38 38 39 38 38 37 36 36 33 35 34 30 23 18 15 7 2 6 7 13 22 29 40 49
5 9 21 28 19 31 30 30 6 7 9 8 3 9 31 25 30 24 35 35 42 45 46 46 50 47 47 46 43 39 37 31 26 20 16 14 7 5 2 4 10 10 11 21
16 11 14 12 21 33 44 49 38 15 6 32 9 11 27 30 31 47 35 36 44 48 55 56 55 60 60 59 61 56 53 49 44 39 38 39 39 34 33 27 17 17 15 11
11 6 9 16 19 26 45 51 48 32 13 15 21 24 35 34 33 32 40 47 55 62 60 57 63 59 60 63 65 62 60 55 50 48 46 44 42 41 41 38 34 33 37 35
10 7 10 9 7 27 35 44 45 41 31 18 20 26 31 31 28 36 45 48 60 67 64 63 60 60 63 63 58 56 52 49 47 47 40 42 39 35 33 27 24 24 25 26
18 6 8 6 9 5 36 44 39 37 31 24 26 22 22 34 47 49 48 49 57 55 61 65 68 67 68 66 63 56 53 49 42 43 41 38 35 32 32 31 30 29 29 33
14 12 10 7 16 12 18 32 30 26 38 23 22 12 19 32 39 51 49 55 56 58 60 65 66 62 63 60 58 57 53 48 45 44 42 38 36 33 35 33 29 24 22 19
13 11 5 7 11 12 6 14 10 13 34 32 21 21 17 20 42 55 59 57 58 59 58 59 60 59 59 55 54 53 51 49 49 48 43 40 37 36 34 31 34 32 31 29
7 6 6 5 7 1 4 14 13 13 21 34 26 24 29 26 29 62 58 53 51 51 49 52 51 52 52 50 48 48 49 48 47 46 45 41 37 33 31 30 33 27 25 25
7 8 6 4 7 10 10 21 17 10 21 38 35 30 32 23 26 15 43 46 47 48 49 49 49 50 51 50 45 46 48 46 48 44 41 37 33 31 31 31 28 27 24 23
10 6 6 9 5 3 11 28 11 5 7 25 27 31 36 19 17 16 25 37 41 44 47 47 50 52 51 46 44 46 44 46 43 37 35 33 30 29 29 27 25 22 20 19
5 6 6 4 3 6 26 6 8 4 6 10 18 22 25 27 27 30 35 39 40 43 43 45 45 45 43 41 40 41 40 40 36 34 30 28 26 25 23 22 20 17 15 15
1 3 4 3 5 2 11 8 5 6 6 9 14 19 24 27 28 28 33 35 39 41 41 40 40 38 36 34 32 30 31 27 25 25 25 25 24 23 21 19 16 14 14 13
6 7 4 6 9 3 1 4 7 12 14 15 16 18 20 25 25 27 28 31 33 33 32 33 31 31 30 29 27 27 25 22 19 17 17 15 15 16 16 15 14 12 11 10
3 14 7 5 6 9 6 9 15 18 17 15 16 17 18 18 20 21 22 23 24 24 25 25 25 26 25 23 22 20 18 17 17 16 16 15 15 14 14 14 14 14 14 14
21 11 8 4 21 7 15 23 21 18 14 14 15 14 13 12 13 14 13 12 12 14 16 19 22 24 23 23 23 23 22 21 20 21 21 21 21 21 21 22 22 22 21 21
Wind_Direction_500mb
230 244 238 243 233 253 272 278 280 277 281 267 257 261 266 270 268 259 253 251 253 250 248 251 251 244 246 246 250 249 249 234 228 229 222 223 227 229 212 222 227 226 225 226
244 246 257 268 272 267 253 260 262 275 268 260 263 265 273 273 270 261 257 250 250 251 248 250 247 249 243 240 244 245 244 239 231 220 225 226 235 234 222 225 231 228 230 232
256 268 303 272 271 266 253 253 264 265 277 262 261 267 258 261 256 254 252 249 248 249 240 246 242 240 231 239 245 234 240 232 222 221 225 233 233 227 223 230 236 233 231 235
267 267 272 279 270 265 267 255 263 263 263 262 192 276 262 267 252 239 246 242 239 241 238 241 239 236 233 234 239 231 229 226 229 221 224 228 227 225 235 232 229 232 231 236
265 298 296 285 280 289 279 286 275 271 267 276 251 264 276 268 260 253 242 236 235 233 228 231 230 231 234 233 230 226 228 227 224 230 227 230 230 228 238 230 228 234 235 245
262 272 280 278 294 286 283 263 242 239 243 248 249 227 282 283 262 260 245 238 234 226 220 223 218 228 232 229 225 221 220 227 228 219 227 232 248 247 244 240 239 232 236 243
314 269 273 309 290 262 222 201 249 224 209 251 109 246 245 314 329 303 291 250 247 217 219 201 212 223 225 219 214 217 213 220 217 223 226 228 242 242 231 231 241 238 237 235
344 321 42 14 292 303 258 213 240 283 262 291 83 242 288 348 321 286 266 245 277 194 170 185 206 208 210 206 201 201 201 210 223 220 231 226 216 229 238 246 259 224 240 236
316 279 323 304 302 317 356 242 293 280 255 269 246 247 232 341 311 276 231 231 161 147 168 185 189 189 188 181 179 183 174 184 193 202 208 211 216 217 232 243 252 250 247 252
299 291 272 318 310 216 258 296 259 194 264 263 204 72 338 334 342 51 124 110 111 147 159 163 166 160 161 166 165 161 160 167 177 181 191 207 226 244 251 252 256 257 260 264
273 250 311 329 359 341 329 280 243 286 238 298 1 41 342 350 6 14 82 96 108 123 133 141 140 136 139 139 142 140 144 146 152 151 146 165 233 253 254 263 275 274 258 252
352 306 307 315 17 3 353 354 337 281 44 342 59 45 349 13 24 23 53 72 96 108 123 122 120 115 119 120 122 119 119 127 125 124 117 105 96 98 109 147 204 201 209 200
340 343 330 8 9 14 20 20 20 23 43 17 26 352 356 19 37 29 42 52 75 84 102 101 110 106 107 109 107 107 102 101 105 109 106 104 99 97 93 93 112 126 124 128
301 289 350 30 9 360 11 16 18 27 37 50 35 19 10 17 27 34 37 47 58 71 81 92 93 96 100 101 100 100 100 99 97 95 94 97 96 95 94 94 91 94 99 97
25 306 336 248 50 15 22 13 18 25 26 44 9 34 20 14 23 29 34 46 56 58 66 80 85 88 91 92 92 93 92 90 88 88 89 85 84 85 86 90 93 92 93 92
5 309 330 260 328 212 24 10 12 23 7 33 32 45 13 25 31 36 37 41 51 51 60 74 78 78 81 85 85 86 85 84 86 90 86 85 85 84 84 85 82 80 81 88
349 335 334 317 348 326 12 357 353 11 17 354 25 19 6 36 35 28 34 42 46 48 53 62 68 73 77 79 80 80 82 86 86 87 89 85 83 88 89 89 85 84 86 90
301 318 286 311 309 35 287 315 336 344 26 12 16 22 30 61 53 42 43 49 48 53 55 60 64 68 71 74 80 85 86 86 86 85 83 82 84 84 86 91 95 93 97 101
223 295 315 0 38 184 143 9 359 2 19 16 9 9 4 18 60 37 32 45 53 58 59 65 70 72 76 78 78 80 82 82 84 82 82 80 79 80 81 82 79 79 81 88
291 224 279 340 54 22 359 346 333 292 38 12 8 17 33 34 61 25 28 50 60 65 69 71 74 75 75 73 75 77 77 78 76 73 73 75 77 80 78 77 82 81 81 80
332 354 35 10 60 70 355 323 322 45 13 358 25 37 44 60 60 47 52 58 60 65 69 70 71 71 71 71 70 71 72 71 70 71 71 71 71 71 71 70 71 69 68 70
331 332 351 274 15 22 359 328 33 36 34 36 42 52 69 77 76 68 64 65 67 69 69 68 68 68 68 68 66 65 65 65 62 58 56 57 58 59 61 63 62 61 62 59
124 270 313 281 59 306 347 55 77 113 98 86 87 88 88 85 78 76 71 69 67 67 67 66 65 65 64 63 62 62 64 63 61 58 55 53 50 48 45 45 45 40 42 35
182 175 249 326 154 175 53 82 120 133 126 117 111 104 99 92 87 84 82 79 77 76 73 67 62 58 54 51 47 43 41 37 37 35 33 30 26 22 20 20 20 17 16 5
43 155 182 247 288 316 247 174 146 141 136 133 128 120 110 99 90 82 77 72 65 60 54 44 35 32 27 25 24 22 16 9 6 5 1 357 351 344 338 331 327 323 319 316
186 180 187 180 168 176 170 175 166 158 151 148 146 139 134 119 102 94 84 70 53 41 30 20 14 11 15 20 18 13 4 354 343 332 324 319 315 313 313 314 312 307 303 299
Wind_Speed_850mb
14 11 26 35 37 45 44 46 52 41 37 32 44 51 50 52 54 53 52 51 51 50 48 43 43 52 43 41 40 39 49 47 67 71 72 80 76 71 67 76 79 71 65 62
11 31 43 41 39 38 43 47 53 49 43 37 43 53 49 48 51 63 59 55 55 50 48 54 51 45 49 41 39 39 50 52 68 77 69 77 70 71 79 77 79 75 72 68
30 41 47 37 40 40 41 44 49 49 46 29 29 52 54 61 60 68 73 65 59 54 48 49 46 43 42 42 46 44 49 50 68 59 62 57 65 74 62 67 81 83 74 76
27 33 27 31 39 38 44 46 50 49 34 27 30 24 33 32 36 47 66 61 62 56 51 53 47 42 43 49 52 48 50 61 63 62 61 66 67 68 68 73 84 90 86 80
24 39 38 35 46 37 30 30 32 28 26 29 38 24 50 31 42 45 43 61 59 54 53 57 53 40 47 45 46 45 51 61 69 63 58 63 77 62 68 81 78 80 81 89
43 49 38 34 37 23 24 11 9 11 9 18 28 26 34 18 36 37 40 55 55 51 52 56 46 51 43 42 43 44 46 57 56 65 63 68 61 70 80 87 77 81 84 88
42 11 12 16 19 19 16 6 7 10 13 14 5 14 30 17 33 42 40 41 50 46 53 43 51 49 41 39 43 42 40 47 45 56 57 62 43 61 45 57 75 82 87 92
20 15 3 5 9 16 25 10 9 11 7 13 5 13 5 18 41 41 51 25 38 36 37 39 48 43 39 37 39 40 38 42 43 38 43 49 30 47 58 67 32 76 77 86
14 11 20 20 9 9 13 9 15 11 14 18 15 6 7 32 32 34 38 36 23 31 37 46 42 39 34 33 34 37 39 40 39 37 35 33 38 48 47 48 49 46 44 57
8 20 8 16 8 10 8 16 11 9 9 12 5 9 21 36 33 11 21 29 37 36 39 38 36 35 32 33 34 36 37 35 28 26 26 24 25 27 36 34 35 43 54 56
14 8 24 26 15 29 31 11 11 8 8 8 8 8 23 30 28 20 18 34 38 38 39 38 38 37 36 36 33 35 34 30 23 18 15 7 2 6 7 13 22 29 40 49
5 9 21 28 19 31 30 30 6 7 9 8 3 9 31 25 30 24 35 35 42 45 46 46 50 47 47 46 43 39 37 31 26 20 16 14 7 5 2 4 10 10 11 21
16 11 14 12 21 33 44 49 38 15 6 32 9 11 27 30 31 47 35 36 44 48 55 56 55 60 60 59 61 56 53 49 44 39 38 39 39 34 33 27 17 17 15 11
11 6 9 16 19 26 45 51 48 32 13 15 21 24 35 34 33 32 40 47 55 62 60 57 63 59 60 63 65 62 60 55 50 48 46 44 42 41 41 38 34 33 37 35
10 7 10 9 7 27 35 44 45 41 31 18 20 26 31 31 28 36 45 48 60 67 64 63 60 60 63 63 58 56 52 49 47 47 40 42 39 35 33 27 24 24 25 26
18 6 8 6 9 5 36 44 39 37 31 24 26 22 22 34 47 49 48 49 57 55 61 65 68 67 68 66 63 56 53 49 42 43 41 38 35 32 32 31 30 29 29 33
14 12 10 7 16 12 18 32 30 26 38 23 22 12 19 32 39 51 49 55 56 58 60 65 66 62 63 60 58 57 53 48 45 44 42 38 36 33 35 33 29 24 22 19
13 11 5 7 11 12 6 14 10 13 34 32 21 21 17 20 42 55 59 57 58 59 58 59 60 59 59 55 54 53 51 49 49 48 43 40 37 36 34 31 34 32 31 29
7 6 6 5 7 1 4 14 13 13 21 34 26 24 29 26 29 62 58 53 51 51 49 52 51 52 52 50 48 48 49 48 47 46 45 41 37 33 31 30 33 27 25 25
7 8 6 4 7 10 10 21 17 10 21 38 35 30 32 23 26 15 43 46 47 48 49 49 49 50 51 50 45 46 48 46 48 44 41 37 33 31 31 31 28 27 24 23
10 6 6 9 5 3 11 28 11 5 7 25 27 31 36 19 17 16 25 37 41 44 47 47 50 52 51 46 44 46 44 46 43 37 35 33 30 29 29 27 25 22 20 19
5 6 6 4 3 6 26 6 8 4 6 10 18 22 25 27 27 30 35 39 40 43 43 45 45 45 43 41 40 41 40 40 36 34 30 28 26 25 23 22 20 17 15 15
1 3 4 3 5 2 11 8 5 6 6 9 14 19 24 27 28 28 33 35 39 41 41 40 40 38 36 34 32 30 31 27 25 25 25 25 24 23 21 19 16 14 14 13
6 7 4 6 9 3 1 4 7 12 14 15 16 18 20 25 25 27 28 31 33 33 32 33 31 31 30 29 27 27 25 22 19 17 17 15 15 16 16 15 14 12 11 10
3 14 7 5 6 9 6 9 15 18 17 15 16 17 18 18 20 21 22 23 24 24 25 25 25 26 25 23 22 20 18 17 17 16 16 15 15 14 14 14 14 14 14 14
21 11 8 4 21 7 15 23 21 18 14 14 15 14 13 12 13 14 13 12 12 14 16 19 22 24 23 23 23 23 22 21 20 21 21 21 21 21 21 22 22 22 21 21
Wind_Direction_850mb
230 244 238 243 233 253 272 278 280 277 281 267 257 261 266 270 268 259 253 251 253 250 248 251 251 244 246 246 250 249 249 234 228 229 222 223 227 229 212 222 227 226 225 226
244 246 257 268 272 267 253 260 262 275 268 260 263 265 273 273 270 261 257 250 250 251 248 250 247 249 243 240 244 245 244 239 231 220 225 226 235 234 222 225 231 228 230 232
256 268 303 272 271 266 253 253 264 265 277 262 261 267 258 261 256 254 252 249 248 249 240 246 242 240 231 239 245 234 240 232 222 221 225 233 233 227 223 230 236 233 231 235
267 267 272 279 270 265 267 255 263 263 263 262 192 276 262 267 252 239 246 242 239 241 238 241 239 236 233 234 239 231 229 226 229 221 224 228 227 225 235 232 229 232 231 236
265 298 296 285 280 289 279 286 275 271 267 276 251 264 276 268 260 253 242 236 235 233 228 231 230 231 234 233 230 226 228 227 224 230 227 230 230 228 238 230 228 234 235 245
262 272 280 278 294 286 283 263 242 239 243 248 249 227 282 283 262 260 245 238 234 226 220 223 218 228 232 229 225 221 220 227 228 219 227 232 248 247 244 240 239 232 236 243
314 269 273 309 290 262 222 201 249 224 209 251 109 246 245 314 329 303 291 250 247 217 219 201 212 223 225 219 214 217 213 220 217 223 226 228 242 242 231 231 241 238 237 235
344 321 42 14 292 303 258 213 240 283 262 291 83 242 288 348 321 286 266 245 277 194 170 185 206 208 210 206 201 201 201 210 223 220 231 226 216 229 238 246 259 224 240 236
316 279 323 304 302 317 356 242 293 280 255 269 246 247 232 341 311 276 231 231 161 147 168 185 189 189 188 181 179 183 174 184 193 202 208 211 216 217 232 243 252 250 247 252
299 291 272 318 310 216 258 296 259 194 264 263 204 72 338 334 342 51 124 110 111 147 159 163 166 160 161 166 165 161 160 167 177 181 191 207 226 244 251 252 256 257 260 264
273 250 311 329 359 341 329 280 243 286 238 298 1 41 342 350 6 14 82 96 108 123 133 141 140 136 139 139 142 140 144 146 152 151 146 165 233 253 254 263 275 274 258 252
352 306 307 315 17 3 353 354 337 281 44 342 59 45 349 13 24 23 53 72 96 108 123 122 120 115 119 120 122 119 119 127 125 124 117 105 96 98 109 147 204 201 209 200
340 343 330 8 9 14 20 20 20 23 43 17 26 352 356 19 37 29 42 52 75 84 102 101 110 106 107 109 107 107 102 101 105 109 106 104 99 97 93 93 112 126 124 128
301 289 350 30 9 360 11 16 18 27 37 50 35 19 10 17 27 34 37 47 58 71 81 92 93 96 100 101 100 100 100 99 97 95 94 97 96 95 94 94 91 94 99 97
25 306 336 248 50 15 22 13 18 25 26 44 9 34 20 14 23 29 34 46 56 58 66 80 85 88 91 92 92 93 92 90 88 88 89 85 84 85 86 90 93 92 93 92
5 309 330 260 328 212 24 10 12 23 7 33 32 45 13 25 31 36 37 41 51 51 60 74 78 78 81 85 85 86 85 84 86 90 86 85 85 84 84 85 82 80 81 88
349 335 334 317 348 326 12 357 353 11 17 354 25 19 6 36 35 28 34 42 46 48 53 62 68 73 77 79 80 80 82 86 86 87 89 85 83 88 89 89 85 84 86 90
301 318 286 311 309 35 287 315 336 344 26 12 16 22 30 61 53 42 43 49 48 53 55 60 64 68 71 74 80 85 86 86 86 85 83 82 84 84 86 91 95 93 97 101
223 295 315 0 38 184 143 9 359 2 19 16 9 9 4 18 60 37 32 45 53 58 59 65 70 72 76 78 78 80 82 82 84 82 82 80 79 80 81 82 79 79 81 88
291 224 279 340 54 22 359 346 333 292 38 12 8 17 33 34 61 25 28 50 60 65 69 71 74 75 75 73 75 77 77 78 76 73 73 75 77 80 78 77 82 81 81 80
332 354 35 10 60 70 355 323 322 45 13 358 25 37 44 60 60 47 52 58 60 65 69 70 71 71 71 71 70 71 72 71 70 71 71 71 71 71 71 70 71 69 68 70
331 332 351 274 15 22 359 328 33 36 34 36 42 52 69 77 76 68 64 65 67 69 69 68 68 68 68 68 66 65 65 65 62 58 56 57 58 59 61 63 62 61 62 59
124 270 313 281 59 306 347 55 77 113 98 86 87 88 88 85 78 76 71 69 67 67 67 66 65 65 64 63 62 62 64 63 61 58 55 53 50 48 45 45 45 40 42 35
182 175 249 326 154 175 53 82 120 133 126 117 111 104 99 92 87 84 82 79 77 76 73 67 62 58 54 51 47 43 41 37 37 35 33 30 26 22 20 20 20 17 16 5
43 155 182 247 288 316 247 174 146 141 136 133 128 120 110 99 90 82 77 72 65 60 54 44 35 32 27 25 24 22 16 9 6 5 1 357 351 344 338 331 327 323 319 316
186 180 187 180 168 176 170 175 166 158 151 148 146 139 134 119 102 94 84 70 53 41 30 20 14 11 15 20 18 13 4 354 343 332 324 319 315 313 313 314 312 307 303 299